TimeEST,TemperatureF,Dew PointF,Humidity,Sea Level PressureIn,VisibilityMPH,Wind Direction,Wind SpeedMPH,Gust SpeedMPH,PrecipitationIn,Events,Conditions,WindDirDegrees,DateUTC
12:54 AM,36.0,28.9,76,30.49,8.0,East,5.8,-,N/A,,Clear,80,2012-11-17 05:54:00
1:54 AM,37.0,28.9,73,30.49,8.0,ENE,3.5,-,N/A,,Clear,70,2012-11-17 06:54:00
2:54 AM,36.0,28.9,76,30.49,7.0,East,5.8,-,N/A,,Clear,80,2012-11-17 07:54:00
3:54 AM,34.0,28.0,79,30.49,8.0,ENE,3.5,-,N/A,,Clear,70,2012-11-17 08:54:00
4:54 AM,35.1,28.9,78,30.50,7.0,East,4.6,-,N/A,,Clear,100,2012-11-17 09:54:00
5:54 AM,28.9,26.1,89,30.52,7.0,Calm,Calm,-,N/A,,Clear,0,2012-11-17 10:54:00
6:54 AM,30.9,27.0,85,30.53,7.0,NNE,5.8,-,N/A,,Clear,20,2012-11-17 11:54:00
7:54 AM,30.0,27.0,88,30.56,6.0,NNE,6.9,-,N/A,,Scattered Clouds,30,2012-11-17 12:54:00
8:54 AM,36.0,30.9,82,30.57,6.0,NE,6.9,-,N/A,,Haze,40,2012-11-17 13:54:00
9:54 AM,39.9,33.1,77,30.58,5.0,ENE,4.6,-,N/A,,Haze,70,2012-11-17 14:54:00
10:54 AM,45.0,34.0,65,30.57,6.0,ESE,4.6,-,N/A,,Haze,110,2012-11-17 15:54:00
11:54 AM,48.9,34.0,56,30.56,10.0,East,8.1,-,N/A,,Scattered Clouds,100,2012-11-17 16:54:00
12:54 PM,52.0,33.1,49,30.53,10.0,SE,4.6,-,N/A,,Partly Cloudy,130,2012-11-17 17:54:00
1:54 PM,54.0,33.1,45,30.50,10.0,NE,5.8,-,N/A,,Partly Cloudy,40,2012-11-17 18:54:00
2:54 PM,54.0,30.9,41,30.48,10.0,East,5.8,-,N/A,,Partly Cloudy,90,2012-11-17 19:54:00
3:54 PM,55.0,30.9,40,30.47,10.0,East,8.1,-,N/A,,Partly Cloudy,100,2012-11-17 20:54:00
4:54 PM,52.0,32.0,47,30.47,10.0,East,5.8,-,N/A,,Partly Cloudy,90,2012-11-17 21:54:00
5:54 PM,50.0,32.0,50,30.47,10.0,ENE,4.6,-,N/A,,Partly Cloudy,70,2012-11-17 22:54:00
6:54 PM,48.0,32.0,54,30.48,10.0,ENE,5.8,-,N/A,,Clear,70,2012-11-17 23:54:00
7:54 PM,46.9,30.9,54,30.48,10.0,East,8.1,-,N/A,,Clear,80,2012-11-18 00:54:00
8:54 PM,45.0,30.9,58,30.48,10.0,ENE,6.9,-,N/A,,Clear,60,2012-11-18 01:54:00
9:54 PM,44.1,30.9,60,30.48,10.0,East,6.9,-,N/A,,Scattered Clouds,80,2012-11-18 02:54:00
10:54 PM,43.0,30.0,60,30.47,10.0,East,5.8,-,N/A,,Mostly Cloudy,80,2012-11-18 03:54:00
11:54 PM,42.1,30.0,62,30.46,10.0,East,6.9,-,N/A,,Clear,90,2012-11-18 04:54:00